STARLINK-35629 (66127 NORAD) Tracking and Keplerian Element Data

This shows tracking and keplerian element data for the satellite.

Feedback or suggestion? Click here.




ElementValue
Catalog66127
NameSTARLINK-35629
Epoch Orbit1028
Epoch Day353.4597161
Epoch Year2025
RAAN55.3583
Inclination53.1614
Eccentricity0.0001205
Argument of Perigee94.0588
Mean Anonmoly266.0554
Mean Motion15.39608983
Decay Rate0.00031584
L11 66127U 25237P 25353.45971610 .00031584 00000+0 79659-3 0 9991
L22 66127 53.1614 55.3583 0001205 94.0588 266.0554 15.39608983 10286



Live tracking and technical data element details for STARLINK-35629 (NORAD 66127). STARLINK-35629 can be tracked NOW for your location showing map with azimuth and elevation plus other details from your city location.







IsCatalogInMostPopularTable: catalog: 66127, numindb: 5
Update: records affected: 1



GetName: 66127 STARLINK-35629

Hit Count: updated at: Mon, 09 Feb 2026 08:09:20 GMT